Location: Woodstock
(35.2731°N, 89.9823°W)
Time: 14:00:00
(UTC+00:00)

deb Explorer IX - Visible Passes

Search period start: 07 November 2024 00:00
Search period end: 17 November 2024 00:00
Orbit: 494 x 787 km, 38.7° (Epoch: 06 November)

Date Brightness Start Highest point End Pass type
(mag) Time Alt. Az. Time Alt. Az. Time Alt. Az.
07 Nov ? 00:20:07 10° SSE 00:21:32 11° SE 00:21:38 11° SE visible
07 Nov ? 01:58:35 10° SW 01:59:08 13° SW 01:59:08 13° SW visible
08 Nov ? 00:40:13 10° SSW 00:44:01 23° SSE 00:44:01 23° SSE visible
08 Nov ? 02:21:25 10° WSW 02:21:30 10° WSW 02:21:30 10° WSW visible
09 Nov ? 01:02:01 10° SW 01:06:04 39° S 01:06:04 39° S visible
09 Nov ? 23:43:23 10° S 23:47:04 20° SE 23:50:20 12° E visible
10 Nov ? 01:24:15 10° WSW 01:27:46 43° SW 01:27:46 43° SW visible
11 Nov ? 00:04:30 10° SW 00:09:08 38° SSE 00:11:44 23° E visible
11 Nov ? 01:46:36 10° WSW 01:49:09 30° W 01:49:09 30° W visible
12 Nov ? 00:26:07 10° WSW 00:31:05 65° SSE 00:32:48 41° E visible
12 Nov ? 02:08:52 10° W 02:10:11 18° W 02:10:11 18° W visible
13 Nov ? 00:47:52 10° WSW 00:52:55 84° NNW 00:53:32 70° ENE visible
13 Nov ? 02:30:53 10° W 02:30:54 10° W 02:30:54 10° W visible
13 Nov ? 23:27:00 10° SW 23:31:42 59° SSE 23:36:36 11° ENE visible
14 Nov ? 01:09:33 10° W 01:13:58 59° NW 01:13:58 59° NW visible
14 Nov ? 23:48:09 10° WSW 23:52:58 89° NNW 23:56:46 19° ENE visible
15 Nov ? 01:31:02 10° W 01:34:06 35° WNW 01:34:06 35° WNW visible
16 Nov ? 00:09:16 10° W 00:14:04 67° N 00:16:38 29° ENE visible
16 Nov ? 01:52:10 10° WNW 01:53:57 22° WNW 01:53:57 22° WNW visible
